| time (UTC) | temp C | wind direction | speed KPH | gust KPH | rain 1hr cm | rain 24hr cm | rain mn cm | humidity % | barometer mb |
| 20260903223524 | 26 | 189 | 1.6 | 1.6 | 0.00 | 0.61 | 0.61 | 86 | 993.3 |
| 20260903222023 | 26 | 187 | 0.0 | 0.0 | 0.00 | 0.61 | 0.61 | 85 | 993.4 |
| 20260903220521 | 27 | 166 | 3.2 | 3.2 | 0.00 | 0.61 | 0.61 | 82 | 993.5 |
| 20260903215021 | 25 | 176 | 0.0 | 0.0 | 0.00 | 0.61 | 0.61 | 88 | 993.7 |
| 20260903213516 | 26 | 185 | 0.0 | 1.6 | 0.00 | 0.61 | 0.61 | 85 | 993.9 |
| 20260903212014 | 26 | 174 | 3.2 | 3.2 | 0.00 | 0.61 | 0.61 | 87 | 993.9 |
| 20260903210512 | 25 | 189 | 0.0 | 1.6 | 0.00 | 0.61 | 0.61 | 93 | 993.9 |
| 20260903205008 | 24 | 199 | 1.6 | 3.2 | 0.00 | 0.61 | 0.61 | 94 | 993.5 |
| 20260903203507 | 23 | 117 | 3.2 | 4.8 | 0.00 | 0.61 | 0.61 | 96 | 993.2 |
| 20260903202003 | 23 | 180 | 0.0 | 0.0 | 0.00 | 0.61 | 0.61 | 97 | 993.5 |
| 20260903200503 | 23 | 283 | 3.2 | 4.8 | 0.00 | 0.61 | 0.61 | 96 | 994.1 |
| 20260903195001 | 23 | 210 | 0.0 | 1.6 | 0.00 | 0.61 | 0.61 | 95 | 994.1 |
| 20260903193500 | 23 | 293 | 1.6 | 3.2 | 0.00 | 0.61 | 0.61 | 94 | 994.5 |
| 20260903191958 | 23 | 197 | 0.0 | 1.6 | 0.00 | 0.61 | 0.61 | 93 | 994.7 |
| 20260903190454 | 23 | 283 | 3.2 | 3.2 | 0.13 | 0.61 | 0.61 | 94 | 994.3 |
| 20260903184949 | 22 | 256 | 3.2 | 4.8 | 0.30 | 0.58 | 0.58 | 94 | 995.5 |
| 20260903183447 | 22 | 275 | 4.8 | 6.4 | 0.48 | 0.51 | 0.51 | 93 | 995.8 |
| 20260903181948 | 23 | 312 | 4.8 | 9.7 | 0.13 | 0.43 | 0.43 | 90 | 996.1 |
| 20260903180442 | 25 | 27 | 3.2 | 12.9 | 0.00 | 0.41 | 0.41 | 83 | 996.5 |
| 20260903174941 | 26 | 336 | 4.8 | 16.1 | 0.00 | 0.41 | 0.41 | 79 | 996.0 |
| 20260903173437 | 26 | 305 | 6.4 | 14.5 | 0.00 | 0.41 | 0.41 | 83 | 995.5 |
| 20260903171935 | 26 | 210 | 3.2 | 9.7 | 0.00 | 0.41 | 0.41 | 84 | 994.7 |
| 20260903170430 | 26 | 320 | 9.7 | 12.9 | 0.00 | 0.41 | 0.41 | 85 | 994.5 |
| 20260903164930 | 27 | 268 | 11.3 | 14.5 | 0.00 | 0.41 | 0.41 | 84 | 993.8 |
| 20260903163427 | 27 | 268 | 4.8 | 11.3 | 0.00 | 0.41 | 0.41 | 82 | 993.1 |
| 20260903161926 | 28 | 217 | 9.7 | 12.9 | 0.00 | 0.41 | 0.41 | 80 | 992.8 |
| 20260903160422 | 28 | 156 | 6.4 | 12.9 | 0.00 | 0.41 | 0.41 | 79 | 993.1 |
| 20260903154918 | 28 | 156 | 3.2 | 12.9 | 0.00 | 0.41 | 0.41 | 81 | 993.1 |
| 20260903153415 | 28 | 202 | 9.7 | 12.9 | 0.00 | 0.41 | 0.41 | 80 | 993.5 |
| 20260903151914 | 28 | 232 | 6.4 | 9.7 | 0.00 | 0.41 | 0.41 | 79 | 993.5 |
| 20260903150410 | 28 | 200 | 3.2 | 4.8 | 0.00 | 0.41 | 0.41 | 81 | 993.9 |
| 20260903144905 | 28 | 185 | 3.2 | 4.8 | 0.00 | 0.41 | 0.41 | 82 | 993.6 |
| 20260903143405 | 28 | 250 | 1.6 | 4.8 | 0.00 | 0.41 | 0.41 | 81 | 993.6 |
| 20260903141902 | 28 | 194 | 3.2 | 6.4 | 0.00 | 0.41 | 0.41 | 83 | 993.5 |
| 20260903140400 | 29 | 178 | 6.4 | 9.7 | 0.00 | 0.41 | 0.41 | 80 | 993.3 |
| 20260903134855 | 28 | 180 | 1.6 | 6.4 | 0.00 | 0.41 | 0.41 | 84 | 993.3 |
| 20260903133351 | 26 | 225 | 4.8 | 4.8 | 0.00 | 0.41 | 0.41 | 90 | 993.5 |
| 20260903131847 | 25 | 196 | 0.0 | 4.8 | 0.00 | 0.41 | 0.41 | 97 | 993.4 |
| 20260903130346 | 24 | 182 | 1.6 | 3.2 | 0.00 | 0.41 | 0.41 | 99 | 993.5 |
| 20260903124845 | 23 | 182 | 0.0 | 1.6 | 0.00 | 0.41 | 0.41 | 99 | 993.4 |
| 20260903123340 | 23 | 162 | 0.0 | 0.0 | 0.00 | 0.41 | 0.41 | 99 | 993.5 |
| 20260903121839 | 23 | 190 | 1.6 | 3.2 | 0.00 | 0.41 | 0.41 | 99 | 993.7 |
| 20260903120334 | 23 | 189 | 0.0 | 1.6 | 0.00 | 0.41 | 0.41 | 99 | 993.8 |
| 20260903114833 | 23 | 192 | 0.0 | 3.2 | 0.00 | 0.41 | 0.41 | 99 | 993.7 |
| 20260903113332 | 23 | 191 | 3.2 | 3.2 | 0.00 | 0.41 | 0.41 | 99 | 993.7 |
| 20260903111828 | 23 | 155 | 0.0 | 1.6 | 1.85 | 0.41 | 0.41 | 99 | 993.7 |
| 20260903110326 | 22 | 164 | 0.0 | 0.0 | 0.00 | 0.00 | 0.00 | 99 | 993.6 |
| 20260903104826 | 21 | 164 | 0.0 | 0.0 | 0.00 | 0.00 | 0.00 | 99 | 993.7 |
| 20260903103325 | 22 | 167 | 0.0 | 0.0 | 0.00 | 0.00 | 0.00 | 99 | 993.5 |
| 20260903101820 | 21 | 165 | 0.0 | 0.0 | 0.00 | 0.00 | 0.00 | 99 | 993.4 |
| 20260903100317 | 22 | 167 | 0.0 | 0.0 | 0.00 | 0.00 | 0.00 | 99 | 993.6 |
| 20260903094816 | 22 | 168 | 0.0 | 0.0 | 0.00 | 0.00 | 0.00 | 99 | 993.6 |
| 20260903093313 | 22 | 178 | 0.0 | 0.0 | 0.00 | 0.00 | 0.00 | 99 | 993.5 |
| 20260903091813 | 21 | 169 | 0.0 | 0.0 | 0.00 | 0.00 | 0.00 | 99 | 993.6 |
| 20260903090308 | 22 | 170 | 0.0 | 0.0 | 0.00 | 0.00 | 0.00 | 99 | 993.7 |
| 20260903084805 | 22 | 172 | 0.0 | 0.0 | 0.00 | 0.00 | 0.00 | 99 | 993.5 |
| 20260903083301 | 22 | 173 | 0.0 | 0.0 | 0.00 | 0.00 | 0.00 | 99 | 993.3 |
| 20260903081756 | 22 | 179 | 0.0 | 0.0 | 0.00 | 0.00 | 0.00 | 99 | 993.5 |
| 20260903080251 | 22 | 181 | 0.0 | 0.0 | 0.00 | 0.00 | 0.00 | 99 | 993.5 |
| 20260903074750 | 22 | 183 | 0.0 | 0.0 | 0.00 | 0.00 | 0.00 | 99 | 993.6 |
| 20260903073248 | 22 | 165 | 0.0 | 0.0 | 0.00 | 0.00 | 0.00 | 99 | 993.3 |
| 20260903071749 | 22 | 170 | 0.0 | 0.0 | 0.00 | 0.00 | 0.00 | 99 | 993.5 |
| 20260903070245 | 22 | 170 | 0.0 | 0.0 | 0.00 | 0.00 | 0.00 | 99 | 993.4 |
| 20260903064744 | 22 | 170 | 0.0 | 0.0 | 0.00 | 0.00 | 0.00 | 99 | 993.3 |
| 20260903063243 | 22 | 180 | 0.0 | 0.0 | 0.00 | 0.00 | 0.00 | 99 | 993.4 |
| 20260903061740 | 22 | 174 | 0.0 | 0.0 | 0.00 | 0.00 | 0.00 | 99 | 993.2 |
| 20260903060235 | 22 | 234 | 0.0 | 0.0 | 0.00 | 0.00 | 0.00 | 99 | 993.4 |
| 20260903054732 | 22 | 172 | 0.0 | 0.0 | 0.00 | 0.00 | 0.00 | 99 | 993.3 |
| 20260903053230 | 22 | 172 | 0.0 | 0.0 | 0.00 | 0.00 | 0.00 | 99 | 993.2 |
| 20260903051728 | 22 | 172 | 0.0 | 0.0 | 0.00 | 0.00 | 0.00 | 99 | 993.1 |
| 20260903050224 | 23 | 171 | 0.0 | 0.0 | 0.00 | 0.00 | 0.00 | 98 | 993.2 |
| 20260903044723 | 22 | 196 | 0.0 | 0.0 | 0.00 | 0.00 | 0.00 | 98 | 993.0 |
| 20260903043220 | 23 | 92 | 0.0 | 0.0 | 0.00 | 0.00 | 0.00 | 98 | 992.9 |
| 20260903041717 | 23 | 92 | 0.0 | 0.0 | 0.00 | 0.00 | 0.00 | 98 | 993.0 |
| 20260903040213 | 23 | 92 | 0.0 | 0.0 | 0.00 | 0.00 | 0.00 | 98 | 992.9 |
| 20260903034710 | 23 | 92 | 0.0 | 0.0 | 0.00 | 0.00 | 0.00 | 97 | 992.9 |
| 20260903033207 | 23 | 92 | 0.0 | 0.0 | 0.00 | 0.00 | 0.00 | 97 | 992.8 |
| 20260903031705 | 23 | 92 | 0.0 | 0.0 | 0.00 | 0.00 | 0.00 | 97 | 993.2 |
| 20260903030202 | 24 | 327 | 1.6 | 3.2 | 0.00 | 0.00 | 0.00 | 94 | 993.0 |
| 20260903024700 | 24 | 167 | 0.0 | 1.6 | 0.00 | 0.00 | 0.00 | 93 | 993.0 |
| 20260903023155 | 25 | 166 | 0.0 | 1.6 | 0.00 | 0.00 | 0.00 | 91 | 992.9 |
| 20260903021655 | 25 | 186 | 0.0 | 1.6 | 0.00 | 0.00 | 0.00 | 91 | 993.0 |
| 20260903020150 | 25 | 162 | 0.0 | 1.6 | 0.00 | 0.00 | 0.00 | 90 | 992.5 |
| 20260903014648 | 26 | 235 | 1.6 | 1.6 | 0.00 | 0.00 | 0.00 | 87 | 993.0 |
| 20260903013148 | 26 | 199 | 0.0 | 0.0 | 0.00 | 0.00 | 0.00 | 85 | 992.8 |
| 20260903011646 | 26 | 239 | 1.6 | 1.6 | 0.00 | 0.00 | 0.00 | 85 | 992.6 |
| 20260903010146 | 27 | 308 | 3.2 | 3.2 | 0.00 | 0.00 | 0.00 | 83 | 992.3 |
| 20260903004642 | 26 | 196 | 0.0 | 0.0 | 0.00 | 0.00 | 0.00 | 83 | 992.2 |
| 20260903003140 | 27 | 240 | 1.6 | 1.6 | 0.00 | 0.00 | 0.00 | 82 | 992.3 |
| 20260903001636 | 27 | 190 | 3.2 | 6.4 | 0.00 | 0.00 | 0.00 | 79 | 992.1 |
| 20260903000131 | 27 | 251 | 4.8 | 6.4 | 0.00 | 0.00 | 0.00 | 79 | 992.3 |
| 20260902234631 | 28 | 223 | 6.4 | 6.4 | 0.00 | 0.00 | 0.00 | 78 | 992.1 |
| 20260902233131 | 28 | 194 | 3.2 | 11.3 | 0.00 | 0.00 | 0.00 | 77 | 992.4 |
| 20260902231630 | 28 | 241 | 3.2 | 6.4 | 0.00 | 0.00 | 0.00 | 76 | 992.3 |
| 20260902230130 | 28 | 290 | 6.4 | 12.9 | 0.00 | 0.00 | 0.00 | 75 | 992.4 |